When you browse on this site, cookies collect data to enhance your experience and personalize the content and advertising you see.
Visit our Privacy Policy to learn more. By continuing to use the site, you agree to this use of cookies and data.
  • In Schweiz
  • Länderverzeichnis
  • Für 7 Tage
  • Wassertemperatur
  • Wetterkarte
  • Widgets
  • user-avatar
    Anmelden

    Stündliche Wetter Barcelona

    Heute, 3 Juni, Mittwoch

    Zeit Temperatur Niederschläge Wind Luftdruck Luftfeuchtigkeit
    00:00 +26°C° 0 mm 2 m/S 759 mmHg 85%
    01:00 +26°C° 0 mm 2 m/S 759 mmHg 84%
    02:00 +26°C° 0 mm 1 m/S 758 mmHg 83%
    03:00 +25°C° 0 mm 1 m/S 758 mmHg 83%
    04:00 +25°C° 0 mm 1 m/S 758 mmHg 84%
    05:00 +25°C° 0 mm 1 m/S 758 mmHg 84%
    06:00 +26°C° 0 mm 2 m/S 759 mmHg 79%
    07:00 +28°C° 0 mm 2 m/S 759 mmHg 73%
    08:00 +30°C° 0 mm 1 m/S 760 mmHg 65%
    09:00 +32°C° 0 mm 2 m/S 760 mmHg 59%
    10:00 +35°C° 0 mm 2 m/S 760 mmHg 53%
    11:00 +37°C° 0 mm 2 m/S 760 mmHg 47%
    12:00 +37°C° 0 mm 2 m/S 759 mmHg 48%
    13:00 +36°C° 0 mm 3 m/S 759 mmHg 50%
    14:00 +35°C° 0 mm 3 m/S 758 mmHg 52%
    15:00 +35°C° 0 mm 4 m/S 757 mmHg 55%
    16:00 +34°C° 0 mm 4 m/S 757 mmHg 57%
    17:00 +33°C° 0 mm 5 m/S 756 mmHg 60%
    18:00 +32°C° 0 mm 5 m/S 757 mmHg 67%
    19:00 +30°C° 0 mm 5 m/S 757 mmHg 74%
    20:00 +28°C° 0 mm 5 m/S 758 mmHg 81%
    21:00 +28°C° 0 mm 4 m/S 758 mmHg 80%
    22:00 +28°C° 0 mm 4 m/S 759 mmHg 80%
    23:00 +28°C° 0 mm 3 m/S 759 mmHg 79%

    Morgen, 4 Juni, Donnerstag

    Zeit Temperatur Niederschläge Wind Luftdruck Luftfeuchtigkeit
    00:00 +27°C° 0 mm 2 m/S 759 mmHg 79%
    01:00 +27°C° 0 mm 2 m/S 759 mmHg 79%
    02:00 +26°C° 0 mm 1 m/S 758 mmHg 79%
    03:00 +26°C° 0 mm 1 m/S 758 mmHg 80%
    04:00 +25°C° 0 mm 2 m/S 758 mmHg 80%
    05:00 +25°C° 0 mm 2 m/S 758 mmHg 80%
    06:00 +26°C° 0 mm 2 m/S 759 mmHg 74%
    07:00 +28°C° 0 mm 2 m/S 759 mmHg 67%
    08:00 +29°C° 0 mm 2 m/S 760 mmHg 61%
    09:00 +32°C° 0 mm 2 m/S 760 mmHg 53%
    10:00 +35°C° 0 mm 2 m/S 760 mmHg 46%
    11:00 +38°C° 0 mm 2 m/S 760 mmHg 38%
    12:00 +37°C° 0 mm 2 m/S 759 mmHg 40%
    13:00 +37°C° 0 mm 3 m/S 759 mmHg 43%
    14:00 +36°C° 0 mm 4 m/S 758 mmHg 45%
    15:00 +35°C° 0 mm 4 m/S 758 mmHg 50%
    16:00 +34°C° 0 mm 4 m/S 757 mmHg 56%
    17:00 +33°C° 0 mm 5 m/S 757 mmHg 62%
    18:00 +32°C° 0.2 mm 5 m/S 757 mmHg 67%
    19:00 +30°C° 0.2 mm 5 m/S 758 mmHg 72%
    20:00 +29°C° 0.2 mm 6 m/S 759 mmHg 77%
    21:00 +29°C° 0.1 mm 5 m/S 759 mmHg 80%
    22:00 +28°C° 0.1 mm 5 m/S 759 mmHg 84%
    23:00 +28°C° 0.1 mm 4 m/S 759 mmHg 87%

    übermorgen, 5 Juni, Freitag

    Zeit Temperatur Niederschläge Wind Luftdruck Luftfeuchtigkeit
    00:00 +27°C° 0 mm 4 m/S 759 mmHg 88%
    01:00 +27°C° 0 mm 3 m/S 759 mmHg 90%
    02:00 +26°C° 0 mm 3 m/S 758 mmHg 92%
    03:00 +26°C° 0 mm 2 m/S 758 mmHg 92%
    04:00 +26°C° 0 mm 2 m/S 758 mmHg 92%
    05:00 +26°C° 0 mm 2 m/S 758 mmHg 93%
    06:00 +27°C° 0 mm 1 m/S 759 mmHg 86%
    07:00 +29°C° 0 mm 1 m/S 759 mmHg 79%
    08:00 +31°C° 0 mm 1 m/S 760 mmHg 72%
    09:00 +33°C° 0 mm 1 m/S 760 mmHg 63%
    10:00 +35°C° 0 mm 1 m/S 760 mmHg 55%
    11:00 +37°C° 0 mm 1 m/S 760 mmHg 46%
    12:00 +37°C° 0.5 mm 2 m/S 759 mmHg 51%
    13:00 +36°C° 0.5 mm 3 m/S 759 mmHg 55%
    14:00 +35°C° 0.5 mm 4 m/S 758 mmHg 59%
    15:00 +34°C° 0.6 mm 4 m/S 758 mmHg 61%
    16:00 +34°C° 0.6 mm 4 m/S 757 mmHg 63%
    17:00 +33°C° 0.6 mm 5 m/S 757 mmHg 65%
    18:00 +32°C° 0.1 mm 5 m/S 757 mmHg 71%
    19:00 +30°C° 0.1 mm 5 m/S 758 mmHg 76%
    20:00 +29°C° 0.1 mm 5 m/S 758 mmHg 82%
    21:00 +28°C° 0 mm 4 m/S 759 mmHg 83%
    22:00 +28°C° 0 mm 3 m/S 759 mmHg 85%
    23:00 +28°C° 0 mm 3 m/S 759 mmHg 86%

    6 Juni, Samstag

    Zeit Temperatur Niederschläge Wind Luftdruck Luftfeuchtigkeit
    00:00 +27°C° 0 mm 2 m/S 759 mmHg 86%
    01:00 +27°C° 0 mm 1 m/S 759 mmHg 86%
    02:00 +27°C° 0 mm 1 m/S 758 mmHg 86%
    03:00 +26°C° 0 mm 1 m/S 758 mmHg 86%
    04:00 +26°C° 0 mm 1 m/S 758 mmHg 87%
    05:00 +26°C° 0 mm 2 m/S 758 mmHg 87%
    06:00 +27°C° 0 mm 2 m/S 759 mmHg 80%
    07:00 +29°C° 0 mm 2 m/S 759 mmHg 72%
    08:00 +30°C° 0 mm 2 m/S 760 mmHg 65%
    09:00 +32°C° 0 mm 2 m/S 760 mmHg 58%
    10:00 +36°C° 0 mm 2 m/S 760 mmHg 50%
    11:00 +38°C° 0 mm 2 m/S 760 mmHg 43%
    12:00 +37°C° 0.3 mm 2 m/S 759 mmHg 47%
    13:00 +37°C° 0.3 mm 3 m/S 758 mmHg 51%
    14:00 +36°C° 0.3 mm 3 m/S 758 mmHg 55%
    15:00 +35°C° 0.3 mm 3 m/S 757 mmHg 57%
    16:00 +35°C° 0.3 mm 3 m/S 757 mmHg 59%
    17:00 +34°C° 0.3 mm 4 m/S 757 mmHg 62%
    18:00 +32°C° 0 mm 4 m/S 757 mmHg 68%
    19:00 +30°C° 0 mm 3 m/S 757 mmHg 75%
    20:00 +29°C° 0 mm 3 m/S 758 mmHg 81%
    21:00 +28°C° 0 mm 3 m/S 758 mmHg 82%
    22:00 +28°C° 0 mm 3 m/S 759 mmHg 84%
    23:00 +28°C° 0 mm 3 m/S 759 mmHg 85%

    7 Juni, Sonntag

    Zeit Temperatur Niederschläge Wind Luftdruck Luftfeuchtigkeit
    00:00 +28°C° 0 mm 2 m/S 759 mmHg 83%
    01:00 +27°C° 0 mm 1 m/S 758 mmHg 82%
    02:00 +27°C° 0 mm 1 m/S 758 mmHg 80%
    03:00 +27°C° 0 mm 1 m/S 758 mmHg 79%
    04:00 +27°C° 0 mm 1 m/S 758 mmHg 78%
    05:00 +27°C° 0 mm 1 m/S 758 mmHg 77%
    06:00 +28°C° 0 mm 2 m/S 759 mmHg 72%
    07:00 +29°C° 0 mm 2 m/S 759 mmHg 67%
    08:00 +31°C° 0 mm 2 m/S 760 mmHg 62%
    09:00 +34°C° 0 mm 2 m/S 760 mmHg 54%
    10:00 +36°C° 0 mm 2 m/S 760 mmHg 47%
    11:00 +38°C° 0 mm 2 m/S 760 mmHg 39%
    12:00 +38°C° 0.1 mm 2 m/S 759 mmHg 40%
    13:00 +38°C° 0.1 mm 2 m/S 759 mmHg 41%
    14:00 +39°C° 0.1 mm 3 m/S 758 mmHg 41%
    15:00 +37°C° 0.1 mm 3 m/S 758 mmHg 47%
    16:00 +35°C° 0.1 mm 4 m/S 757 mmHg 53%
    17:00 +34°C° 0.1 mm 4 m/S 757 mmHg 59%
    18:00 +32°C° 0 mm 4 m/S 757 mmHg 67%
    19:00 +30°C° 0 mm 4 m/S 758 mmHg 74%
    20:00 +28°C° 0 mm 4 m/S 758 mmHg 82%
    21:00 +28°C° 0 mm 3 m/S 759 mmHg 82%
    22:00 +28°C° 0 mm 3 m/S 759 mmHg 83%
    23:00 +28°C° 0 mm 2 m/S 760 mmHg 83%

    8 Juni, Montag

    Zeit Temperatur Niederschläge Wind Luftdruck Luftfeuchtigkeit
    00:00 +28°C° 0 mm 2 m/S 759 mmHg 82%
    01:00 +27°C° 0 mm 1 m/S 759 mmHg 81%
    02:00 +27°C° 0 mm 1 m/S 758 mmHg 80%
    03:00 +27°C° 0 mm 1 m/S 758 mmHg 81%
    04:00 +26°C° 0 mm 1 m/S 759 mmHg 82%
    05:00 +26°C° 0 mm 2 m/S 759 mmHg 83%
    06:00 +28°C° 0 mm 2 m/S 759 mmHg 77%
    07:00 +29°C° 0 mm 2 m/S 759 mmHg 71%
    08:00 +30°C° 0 mm 2 m/S 760 mmHg 65%
    09:00 +32°C° 0 mm 2 m/S 760 mmHg 59%
    10:00 +35°C° 0 mm 2 m/S 760 mmHg 53%
    11:00 +37°C° 0 mm 2 m/S 760 mmHg 47%
    12:00 +37°C° 0.1 mm 2 m/S 759 mmHg 47%
    13:00 +37°C° 0.1 mm 3 m/S 759 mmHg 47%
    14:00 +37°C° 0.1 mm 3 m/S 758 mmHg 47%
    15:00 +36°C° 0.1 mm 3 m/S 758 mmHg 53%
    16:00 +34°C° 0.1 mm 3 m/S 758 mmHg 58%
    17:00 +33°C° 0.1 mm 3 m/S 757 mmHg 64%
    18:00 +31°C° 0.1 mm 3 m/S 758 mmHg 71%
    19:00 +29°C° 0.1 mm 2 m/S 758 mmHg 78%
    20:00 +28°C° 0.1 mm 2 m/S 758 mmHg 85%
    21:00 +28°C° 0 mm 2 m/S 759 mmHg 86%
    22:00 +27°C° 0 mm 2 m/S 759 mmHg 86%
    23:00 +27°C° 0 mm 2 m/S 760 mmHg 87%
    Mehr zeigen